User: anonymous   Login
Location: Newark
(40.7066°N, 111.8219°W)
Time: 00:58:57
(UTC+00:00)
Language:

Altair - Orbit

View from above orbital plane
View from above orbital plane
View from above satellite
View from above satellite

Ground track
Ground track

The orbit data is extracted from the following two-line orbital elements,

1    50U 60009B   19318.40747216 -.00000144 +00000-0 -54332-3 0  9994
2    50 047.2317 071.7993 0113108 041.9961 318.9435 12.20108945643841
Epoch (UTC): 14 November 2019 09:46:45
Eccentricity: 0.0113108
inclination: 47.2317°
perigee height: 1502 km
apogee height: 1682 km
right ascension of ascending node: 71.7993°
argument of perigee: 41.9961°
revolutions per day: 12.20108945
mean anomaly at epoch: 318.9435°
orbit number at epoch: 64384

The dashed part of the orbit path shows where the satellite is in the earth's shadow,  

DLR